• In Hungary
  • List of Countries
  • For 7 days
  • Water Temperature
  • Satellite Maps
  • Weather Map
  • News
  • Weather Widgets
  • user-avatar
    Login

    Hourly Weather Herāt

    Today, 17 October, Wednesday

    Time Temperature Precipitation Wind Pressure Humidity
    00:00 +8°C° 0 mm 5 mps 685 mmHg 67%
    01:00 +8°C° 0 mm 5 mps 685 mmHg 68%
    02:00 +8°C° 0 mm 5 mps 684 mmHg 68%
    03:00 +7°C° 0 mm 4 mps 684 mmHg 68%
    04:00 +7°C° 0 mm 4 mps 684 mmHg 68%
    05:00 +7°C° 0 mm 4 mps 684 mmHg 66%
    06:00 +7°C° 0 mm 4 mps 684 mmHg 63%
    07:00 +7°C° 0 mm 4 mps 684 mmHg 61%
    08:00 +9°C° 0 mm 5 mps 684 mmHg 51%
    09:00 +12°C° 0 mm 5 mps 685 mmHg 42%
    10:00 +14°C° 0 mm 6 mps 685 mmHg 33%
    11:00 +15°C° 0 mm 6 mps 684 mmHg 30%
    12:00 +16°C° 0 mm 7 mps 684 mmHg 27%
    13:00 +17°C° 0 mm 7 mps 683 mmHg 23%
    14:00 +16°C° 0 mm 7 mps 683 mmHg 23%
    15:00 +16°C° 0 mm 7 mps 683 mmHg 23%
    16:00 +15°C° 0 mm 7 mps 682 mmHg 23%
    17:00 +14°C° 0 mm 7 mps 682 mmHg 24%
    18:00 +12°C° 0 mm 7 mps 682 mmHg 26%
    19:00 +10°C° 0 mm 6 mps 682 mmHg 27%
    20:00 +10°C° 0 mm 6 mps 682 mmHg 27%
    21:00 +9°C° 0 mm 5 mps 682 mmHg 27%
    22:00 +10°C° 0 mm 4 mps 682 mmHg 27%
    23:00 +8°C° 0 mm 4 mps 682 mmHg 27%

    Tomorrow, 18 October, Thursday

    Time Temperature Precipitation Wind Pressure Humidity
    00:00 +8°C° 0 mm 4 mps 682 mmHg 28%
    01:00 +9°C° 0 mm 3 mps 681 mmHg 28%
    02:00 +8°C° 0 mm 3 mps 681 mmHg 29%
    03:00 +8°C° 0 mm 3 mps 681 mmHg 30%
    04:00 +8°C° 0 mm 3 mps 681 mmHg 30%
    05:00 +8°C° 0 mm 3 mps 681 mmHg 30%
    06:00 +8°C° 0 mm 3 mps 681 mmHg 30%
    07:00 +9°C° 0 mm 3 mps 682 mmHg 30%
    08:00 +11°C° 0 mm 3 mps 682 mmHg 27%
    09:00 +13°C° 0 mm 3 mps 682 mmHg 24%
    10:00 +16°C° 0 mm 3 mps 682 mmHg 21%
    11:00 +17°C° 0 mm 3 mps 682 mmHg 20%
    12:00 +18°C° 0 mm 4 mps 682 mmHg 19%
    13:00 +19°C° 0 mm 4 mps 682 mmHg 18%
    14:00 +18°C° 0 mm 4 mps 681 mmHg 19%
    15:00 +17°C° 0 mm 5 mps 681 mmHg 19%
    16:00 +17°C° 0 mm 5 mps 681 mmHg 19%
    17:00 +15°C° 0 mm 5 mps 681 mmHg 21%
    18:00 +14°C° 0 mm 4 mps 681 mmHg 23%
    19:00 +13°C° 0 mm 4 mps 682 mmHg 25%
    20:00 +12°C° 0 mm 4 mps 682 mmHg 26%
    21:00 +12°C° 0 mm 3 mps 682 mmHg 27%
    22:00 +11°C° 0 mm 3 mps 682 mmHg 28%
    23:00 +11°C° 0 mm 3 mps 682 mmHg 29%

    Day after tomorrow, 19 October, Friday

    Time Temperature Precipitation Wind Pressure Humidity
    00:00 +10°C° 0 mm 3 mps 682 mmHg 30%
    01:00 +10°C° 0 mm 2 mps 682 mmHg 31%
    02:00 +9°C° 0 mm 2 mps 682 mmHg 32%
    03:00 +9°C° 0 mm 2 mps 681 mmHg 33%
    04:00 +9°C° 0 mm 2 mps 681 mmHg 33%
    05:00 +9°C° 0 mm 2 mps 682 mmHg 33%
    06:00 +9°C° 0 mm 2 mps 682 mmHg 32%
    07:00 +10°C° 0 mm 2 mps 682 mmHg 32%
    08:00 +12°C° 0 mm 3 mps 683 mmHg 28%
    09:00 +14°C° 0 mm 3 mps 683 mmHg 25%
    10:00 +17°C° 0 mm 3 mps 684 mmHg 21%
    11:00 +18°C° 0 mm 3 mps 683 mmHg 20%
    12:00 +19°C° 0 mm 4 mps 683 mmHg 18%
    13:00 +20°C° 0 mm 4 mps 683 mmHg 17%
    14:00 +19°C° 0 mm 4 mps 683 mmHg 17%
    15:00 +19°C° 0 mm 5 mps 682 mmHg 18%
    16:00 +19°C° 0 mm 5 mps 682 mmHg 18%
    17:00 +16°C° 0 mm 5 mps 682 mmHg 21%
    18:00 +15°C° 0 mm 4 mps 682 mmHg 23%
    19:00 +14°C° 0 mm 4 mps 683 mmHg 26%
    20:00 +13°C° 0 mm 3 mps 683 mmHg 27%
    21:00 +13°C° 0 mm 3 mps 683 mmHg 29%
    22:00 +13°C° 0 mm 2 mps 683 mmHg 30%
    23:00 +13°C° 0 mm 2 mps 683 mmHg 31%

    20 October, Saturday

    Time Temperature Precipitation Wind Pressure Humidity
    00:00 +12°C° 0 mm 2 mps 682 mmHg 32%
    01:00 +12°C° 0 mm 2 mps 682 mmHg 32%
    02:00 +10°C° 0 mm 2 mps 682 mmHg 33%
    03:00 +10°C° 0 mm 2 mps 682 mmHg 34%
    04:00 +9°C° 0 mm 2 mps 681 mmHg 35%
    05:00 +10°C° 0 mm 2 mps 682 mmHg 34%
    06:00 +11°C° 0 mm 1 mps 682 mmHg 33%
    07:00 +12°C° 0 mm 1 mps 682 mmHg 32%
    08:00 +14°C° 0 mm 1 mps 683 mmHg 28%
    09:00 +16°C° 0 mm 1 mps 683 mmHg 24%
    10:00 +19°C° 0 mm 1 mps 684 mmHg 19%
    11:00 +20°C° 0 mm 1 mps 684 mmHg 18%
    12:00 +20°C° 0 mm 2 mps 683 mmHg 16%
    13:00 +21°C° 0 mm 2 mps 683 mmHg 14%
    14:00 +21°C° 0 mm 2 mps 683 mmHg 14%
    15:00 +21°C° 0 mm 2 mps 683 mmHg 14%
    16:00 +21°C° 0 mm 3 mps 683 mmHg 14%
    17:00 +19°C° 0 mm 2 mps 683 mmHg 17%
    18:00 +18°C° 0 mm 2 mps 683 mmHg 19%
    19:00 +16°C° 0 mm 2 mps 683 mmHg 22%
    20:00 +15°C° 0 mm 2 mps 683 mmHg 23%
    21:00 +15°C° 0 mm 2 mps 683 mmHg 24%
    22:00 +14°C° 0 mm 1 mps 682 mmHg 25%
    23:00 +14°C° 0 mm 1 mps 682 mmHg 26%

    21 October, Sunday

    Time Temperature Precipitation Wind Pressure Humidity
    00:00 +13°C° 0 mm 1 mps 682 mmHg 26%
    01:00 +13°C° 0 mm 1 mps 681 mmHg 26%
    02:00 +12°C° 0 mm 1 mps 681 mmHg 27%
    03:00 +12°C° 0 mm 1 mps 681 mmHg 27%
    04:00 +11°C° 0 mm 1 mps 681 mmHg 27%
    05:00 +12°C° 0 mm 1 mps 681 mmHg 26%
    06:00 +12°C° 0 mm 1 mps 681 mmHg 25%
    07:00 +13°C° 0 mm 1 mps 682 mmHg 23%
    08:00 +15°C° 0 mm 1 mps 682 mmHg 20%
    09:00 +19°C° 0 mm 1 mps 683 mmHg 17%
    10:00 +21°C° 0 mm 1 mps 683 mmHg 14%
    11:00 +21°C° 0 mm 2 mps 683 mmHg 13%
    12:00 +23°C° 0 mm 2 mps 683 mmHg 12%
    13:00 +24°C° 0 mm 3 mps 682 mmHg 11%
    14:00 +24°C° 0 mm 2 mps 682 mmHg 11%
    15:00 +23°C° 0 mm 2 mps 682 mmHg 12%
    16:00 +23°C° 0 mm 2 mps 682 mmHg 12%
    17:00 +21°C° 0 mm 2 mps 682 mmHg 14%
    18:00 +20°C° 0 mm 1 mps 681 mmHg 15%
    19:00 +18°C° 0 mm 1 mps 681 mmHg 17%
    20:00 +16°C° 0 mm 1 mps 681 mmHg 18%
    21:00 +16°C° 0 mm 1 mps 681 mmHg 18%
    22:00 +16°C° 0 mm 1 mps 681 mmHg 18%
    23:00 +15°C° 0 mm 2 mps 681 mmHg 18%

    22 October, Monday

    Time Temperature Precipitation Wind Pressure Humidity
    00:00 +15°C° 0 mm 2 mps 681 mmHg 19%
    01:00 +15°C° 0 mm 2 mps 680 mmHg 19%
    02:00 +14°C° 0 mm 2 mps 680 mmHg 19%
    03:00 +14°C° 0 mm 2 mps 680 mmHg 20%
    04:00 +14°C° 0 mm 2 mps 680 mmHg 20%
    05:00 +14°C° 0 mm 2 mps 681 mmHg 20%
    06:00 +14°C° 0 mm 2 mps 681 mmHg 19%
    07:00 +15°C° 0 mm 2 mps 681 mmHg 19%
    08:00 +17°C° 0 mm 2 mps 682 mmHg 16%
    09:00 +19°C° 0 mm 2 mps 682 mmHg 14%
    10:00 +22°C° 0 mm 3 mps 683 mmHg 11%
    11:00 +24°C° 0 mm 3 mps 682 mmHg 11%
    12:00 +24°C° 0 mm 3 mps 682 mmHg 10%
    13:00 +25°C° 0 mm 3 mps 682 mmHg 9%
    14:00 +25°C° 0 mm 3 mps 682 mmHg 10%
    15:00 +25°C° 0 mm 3 mps 681 mmHg 10%
    16:00 +25°C° 0 mm 3 mps 681 mmHg 10%
    17:00 +23°C° 0 mm 2 mps 681 mmHg 11%
    18:00 +20°C° 0 mm 2 mps 681 mmHg 13%
    19:00 +19°C° 0 mm 2 mps 681 mmHg 14%
    20:00 +18°C° 0 mm 2 mps 681 mmHg 14%
    21:00 +18°C° 0 mm 2 mps 681 mmHg 15%
    22:00 +17°C° 0 mm 2 mps 681 mmHg 15%
    23:00 +17°C° 0 mm 2 mps 681 mmHg 15%
    Show more